Powrót do katalogu

KINEIS-3A

AktywnyŁącznośćSSO
NORAD 61223·PAYLOAD·🇫🇷 France

Wystrzelony Sep 20, 2024 z Rocket Lab Launch Complex 1

Loading…

Następne Przeloty (najbliższe 24 godziny)

TLE

ŚwieżeSource: Space-Track

Epoka: Sep 14, 2026, 11:15 UTC

1 61223U 24172D   26257.46940009  .00001294  00000-0  21244-3 0  9996
2 61223  98.0403 346.4940 0002742 139.2784 220.8628 14.72326188105915

Śledź KINEIS-3A w czasie rzeczywistym z AllMySat

Download on the App Store